Find Starlink 34968

NORAD ID: 65276 Int'l Des: 2025-184 Owner: SPXS Country: US Constellation: starlink operational
LEOCIRCULARRETROGRADESSO

Live Position

Loading 3D Globe...

About Starlink 34968

Description loading...

Upcoming Passes

Passes for default location (London). Set your location on the main map for personalized predictions.

Altitude History

Loading altitude history...

Two-Line Element Set

1 65276U 25184D 26106.65674676 .00003325 00000-0 23455-3 0 9993
2 65276 97.6031 160.0857 0000575 156.6386 203.4867 15.05651251 37015
Epoch: Apr 16, 2026 • Age: 21 hours

Current Status

Altitude 552.3 km
Velocity 7.59 km/s
Sub-Earth Point 18.47°N, 124.06°E
Launch Date Aug 22, 2025
Age 0.6 years
Type internet

Technical Details

Classification Payload
Mass 575.00 kg
Dry Mass 530.00 kg
Total Mass 575.00 kg
Length 0.30 m
Diameter 4.10 m
Span 29.00 m
Shape Box + pan
Manufacturer SPXS
Bus Type Starlink V2MO
Phase Status In Orbit
Owner/State SPXS/US

Most Searched